Regional Weather Roundup
Issued by NWS Charleston, WV

Home | Current Version | Previous Version | Graphics & Text | Print | Product List | Glossary On
Versions: 1 2 3 4 5 6 7 8 9 10 11 12 13 14 15 16 17 18 19 20 21 22 23 24 25 26 27 28 29 30 31 32 33 34 35 36 37 38 39 40 41 42 43 44 45 46 47 48 49 50
000
ASUS41 KRLX 312110
RWRRLX
West Virginia Regional Weather Roundup
National Weather Service Charleston WV
500 PM EDT FRI JUL 31 2015

Note: "fair" indicates few or no clouds below 12,000 feet with no
significant weather and/or obstructions to visibility.

WVZ003-312200-
Northern Panhandle of West Virginia

CITY           SKY/WX    TMP DP  RH WIND       PRES   REMARKS
WHEELING       MOSUNNY   84  57  39 W16G23    29.93F
$$

WVZ009-312200-
Northwest West Virginia

CITY           SKY/WX    TMP DP  RH WIND       PRES   REMARKS
PARKERSBURG    PTSUNNY   86  59  39 VRB6      29.97F
$$

WVZ006-312200-
Western West Virginia

CITY           SKY/WX    TMP DP  RH WIND       PRES   REMARKS
HUNTINGTON     MOSUNNY   86  59  39 W9        29.98F
$$

WVZ015-312200-
West Central West Virginia

CITY           SKY/WX    TMP DP  RH WIND       PRES   REMARKS
CHARLESTON     MOSUNNY   86  57  37 VRB3      29.98F
$$

WVZ022-031-312200-
North Central West Virginia

CITY           SKY/WX    TMP DP  RH WIND       PRES   REMARKS
CLARKSBURG     SUNNY     83  59  44 SW14      29.97F
MORGANTOWN     MOSUNNY   86  54  33 VRB6      29.96F
$$

WVZ025-035-042-045-312200-
Southern West Virginia

CITY           SKY/WX    TMP DP  RH WIND       PRES   REMARKS
BECKLEY        MOSUNNY   78  56  46 NW10      30.07F
LOGAN            N/A     82  57  42 NW7       30.00F
BLUEFIELD      SUNNY     80  56  43 W8        30.09F
LEWISBURG      MOSUNNY   81  51  34 NW9       30.04F
$$

WVZ047-312200-
Northern Mountains of West Virginia

CITY           SKY/WX    TMP DP  RH WIND       PRES   REMARKS
ELKINS         MOSUNNY   81  57  43 W12       30.02F
$$

WVZ052-312200-
Eastern Panhandle of West Virginia

CITY           SKY/WX    TMP DP  RH WIND       PRES   REMARKS
MARTINSBURG    SUNNY     87  56  34 W12       29.90F
PETERSBURG     PTSUNNY  N/A N/A N/A W9        29.94F
$$



USA.gov is the U.S. government's official web portal to all federal, state and local government web resources and services.